• En España
  • Lista de países
  • Para 7 días
  • Temperatura del agua
  • Mapa Satelital
  • El tiempo en el mapa
  • Informadores
  • user-avatar
    Iniciar sesión

    Tiempo cada hora Lyazhberdino

    Hoy, 22 Junio, Viernes

    Tiempo Temperatura Precipitaciones Viento Presión Humedad
    00:00 +13°C° 0 mm 5 mps 741 mmHg 73%
    01:00 +12°C° 0 mm 5 mps 741 mmHg 73%
    02:00 +12°C° 0 mm 5 mps 742 mmHg 73%
    03:00 +12°C° 0 mm 5 mps 742 mmHg 73%
    04:00 +12°C° 0 mm 5 mps 743 mmHg 72%
    05:00 +13°C° 0 mm 6 mps 743 mmHg 72%
    06:00 +14°C° 0 mm 6 mps 744 mmHg 72%
    07:00 +15°C° 0 mm 6 mps 744 mmHg 67%
    08:00 +16°C° 0 mm 6 mps 744 mmHg 63%
    09:00 +19°C° 0 mm 6 mps 745 mmHg 58%
    10:00 +20°C° 0 mm 6 mps 745 mmHg 56%
    11:00 +21°C° 0 mm 6 mps 745 mmHg 54%
    12:00 +21°C° 0 mm 6 mps 746 mmHg 51%
    13:00 +22°C° 0 mm 6 mps 746 mmHg 51%
    14:00 +22°C° 0 mm 6 mps 746 mmHg 51%
    15:00 +23°C° 0 mm 5 mps 746 mmHg 51%
    16:00 +22°C° 0 mm 4 mps 746 mmHg 55%
    17:00 +22°C° 0 mm 4 mps 746 mmHg 59%
    18:00 +22°C° 0 mm 3 mps 746 mmHg 64%
    19:00 +20°C° 0 mm 2 mps 746 mmHg 69%
    20:00 +18°C° 0 mm 2 mps 746 mmHg 74%
    21:00 +16°C° 0 mm 2 mps 746 mmHg 79%
    22:00 +16°C° 0 mm 2 mps 746 mmHg 80%
    23:00 +15°C° 0 mm 2 mps 747 mmHg 81%

    Mañana, 23 Junio, Sábado

    Tiempo Temperatura Precipitaciones Viento Presión Humedad
    00:00 +15°C° 0 mm 1 mps 747 mmHg 82%
    01:00 +14°C° 0 mm 1 mps 747 mmHg 83%
    02:00 +14°C° 0 mm 1 mps 747 mmHg 85%
    03:00 +14°C° 0 mm 1 mps 747 mmHg 86%
    04:00 +16°C° 0 mm 1 mps 747 mmHg 84%
    05:00 +17°C° 0 mm 2 mps 747 mmHg 82%
    06:00 +19°C° 0 mm 2 mps 747 mmHg 80%
    07:00 +21°C° 0 mm 2 mps 747 mmHg 76%
    08:00 +24°C° 0 mm 2 mps 747 mmHg 71%
    09:00 +25°C° 0 mm 2 mps 747 mmHg 66%
    10:00 +26°C° 0,3 mm 2 mps 747 mmHg 65%
    11:00 +27°C° 0,3 mm 3 mps 747 mmHg 63%
    12:00 +28°C° 0,3 mm 3 mps 747 mmHg 62%
    13:00 +28°C° 0,4 mm 3 mps 747 mmHg 62%
    14:00 +28°C° 0,4 mm 3 mps 747 mmHg 62%
    15:00 +28°C° 0,4 mm 3 mps 747 mmHg 62%
    16:00 +28°C° 0,5 mm 2 mps 747 mmHg 67%
    17:00 +27°C° 0,5 mm 2 mps 747 mmHg 72%
    18:00 +27°C° 0,5 mm 1 mps 747 mmHg 78%
    19:00 +25°C° 0,1 mm 1 mps 747 mmHg 81%
    20:00 +24°C° 0,1 mm 1 mps 747 mmHg 85%
    21:00 +22°C° 0,1 mm 1 mps 747 mmHg 88%
    22:00 +22°C° 0 mm 1 mps 747 mmHg 89%
    23:00 +21°C° 0 mm 1 mps 747 mmHg 90%

    Pasado mañana, 24 Junio, Domingo

    Tiempo Temperatura Precipitaciones Viento Presión Humedad
    00:00 +21°C° 0 mm 1 mps 747 mmHg 91%
    01:00 +20°C° 0 mm 1 mps 748 mmHg 91%
    02:00 +20°C° 0 mm 1 mps 748 mmHg 92%
    03:00 +20°C° 0 mm 1 mps 748 mmHg 92%
    04:00 +21°C° 0 mm 1 mps 748 mmHg 90%
    05:00 +22°C° 0 mm 1 mps 748 mmHg 88%
    06:00 +22°C° 0 mm 0 mps 748 mmHg 85%
    07:00 +23°C° 0 mm 0 mps 748 mmHg 80%
    08:00 +25°C° 0 mm 0 mps 749 mmHg 74%
    09:00 +26°C° 0 mm 0 mps 749 mmHg 68%
    10:00 +27°C° 0,3 mm 0 mps 749 mmHg 65%
    11:00 +28°C° 0,3 mm 0 mps 749 mmHg 62%
    12:00 +31°C° 0,3 mm 1 mps 749 mmHg 58%
    13:00 +29°C° 1,1 mm 0 mps 749 mmHg 60%
    14:00 +28°C° 1,1 mm 0 mps 749 mmHg 61%
    15:00 +28°C° 1,1 mm 0 mps 749 mmHg 62%
    16:00 +28°C° 0,4 mm 0 mps 749 mmHg 65%
    17:00 +27°C° 0,4 mm 0 mps 749 mmHg 69%
    18:00 +29°C° 0,4 mm 1 mps 749 mmHg 72%
    19:00 +27°C° 0 mm 1 mps 749 mmHg 76%
    20:00 +25°C° 0 mm 1 mps 749 mmHg 81%
    21:00 +24°C° 0 mm 1 mps 749 mmHg 85%
    22:00 +23°C° 0 mm 1 mps 749 mmHg 86%
    23:00 +23°C° 0 mm 1 mps 749 mmHg 87%

    25 Junio, Lunes

    Tiempo Temperatura Precipitaciones Viento Presión Humedad
    00:00 +22°C° 0 mm 1 mps 749 mmHg 89%
    01:00 +22°C° 0 mm 1 mps 749 mmHg 89%
    02:00 +21°C° 0 mm 1 mps 750 mmHg 89%
    03:00 +21°C° 0 mm 1 mps 750 mmHg 90%
    04:00 +22°C° 0 mm 1 mps 750 mmHg 87%
    05:00 +23°C° 0 mm 1 mps 750 mmHg 84%
    06:00 +24°C° 0 mm 1 mps 750 mmHg 81%
    07:00 +26°C° 0 mm 1 mps 750 mmHg 75%
    08:00 +27°C° 0 mm 1 mps 750 mmHg 69%
    09:00 +29°C° 0 mm 2 mps 750 mmHg 63%
    10:00 +30°C° 0 mm 1 mps 750 mmHg 59%
    11:00 +30°C° 0 mm 1 mps 750 mmHg 55%
    12:00 +31°C° 0 mm 1 mps 750 mmHg 51%
    13:00 +31°C° 0 mm 1 mps 750 mmHg 53%
    14:00 +31°C° 0 mm 2 mps 750 mmHg 55%
    15:00 +30°C° 0 mm 2 mps 750 mmHg 57%
    16:00 +30°C° 0 mm 1 mps 750 mmHg 59%
    17:00 +30°C° 0 mm 1 mps 750 mmHg 62%
    18:00 +30°C° 0 mm 1 mps 750 mmHg 65%
    19:00 +28°C° 0,1 mm 1 mps 750 mmHg 69%
    20:00 +26°C° 0,1 mm 1 mps 750 mmHg 72%
    21:00 +24°C° 0,1 mm 1 mps 750 mmHg 76%
    22:00 +23°C° 0 mm 1 mps 750 mmHg 78%
    23:00 +23°C° 0 mm 1 mps 750 mmHg 81%

    26 Junio, Martes

    Tiempo Temperatura Precipitaciones Viento Presión Humedad
    00:00 +21°C° 0 mm 2 mps 750 mmHg 83%
    01:00 +20°C° 0,2 mm 2 mps 750 mmHg 85%
    02:00 +20°C° 0,2 mm 2 mps 750 mmHg 87%
    03:00 +19°C° 0,2 mm 2 mps 750 mmHg 88%
    04:00 +20°C° 0 mm 2 mps 751 mmHg 86%
    05:00 +21°C° 0 mm 2 mps 751 mmHg 84%
    06:00 +23°C° 0 mm 2 mps 751 mmHg 82%
    07:00 +24°C° 0 mm 3 mps 751 mmHg 77%
    08:00 +25°C° 0 mm 3 mps 751 mmHg 73%
    09:00 +26°C° 0 mm 3 mps 751 mmHg 68%
    10:00 +27°C° 0 mm 3 mps 751 mmHg 64%
    11:00 +28°C° 0 mm 3 mps 751 mmHg 61%
    12:00 +29°C° 0 mm 3 mps 751 mmHg 57%
    13:00 +29°C° 0 mm 3 mps 751 mmHg 58%
    14:00 +29°C° 0 mm 3 mps 751 mmHg 58%
    15:00 +29°C° 0 mm 3 mps 751 mmHg 59%
    16:00 +28°C° 0 mm 3 mps 751 mmHg 63%
    17:00 +28°C° 0 mm 3 mps 751 mmHg 67%
    18:00 +27°C° 0 mm 3 mps 751 mmHg 71%
    19:00 +26°C° 0 mm 2 mps 751 mmHg 77%
    20:00 +24°C° 0 mm 2 mps 751 mmHg 83%
    21:00 +21°C° 0 mm 2 mps 751 mmHg 89%
    22:00 +20°C° 0 mm 2 mps 751 mmHg 90%
    23:00 +20°C° 0 mm 2 mps 751 mmHg 92%

    27 Junio, Miércoles

    Tiempo Temperatura Precipitaciones Viento Presión Humedad
    00:00 +19°C° 0 mm 2 mps 751 mmHg 93%
    01:00 +19°C° 0 mm 2 mps 751 mmHg 94%
    02:00 +18°C° 0 mm 2 mps 751 mmHg 95%
    03:00 +18°C° 0 mm 2 mps 752 mmHg 96%
    04:00 +19°C° 0 mm 3 mps 752 mmHg 93%
    05:00 +20°C° 0 mm 3 mps 752 mmHg 90%
    06:00 +21°C° 0 mm 3 mps 752 mmHg 87%
    07:00 +22°C° 0 mm 3 mps 752 mmHg 82%
    08:00 +25°C° 0 mm 3 mps 752 mmHg 78%
    09:00 +26°C° 0 mm 3 mps 752 mmHg 73%
    10:00 +27°C° 0,7 mm 3 mps 752 mmHg 70%
    11:00 +28°C° 0,7 mm 4 mps 752 mmHg 67%
    12:00 +28°C° 0,7 mm 4 mps 751 mmHg 64%
    13:00 +29°C° 0,2 mm 4 mps 751 mmHg 63%
    14:00 +29°C° 0,2 mm 4 mps 751 mmHg 62%
    15:00 +29°C° 0,2 mm 4 mps 751 mmHg 61%
    16:00 +29°C° 0,1 mm 4 mps 751 mmHg 65%
    17:00 +28°C° 0,1 mm 3 mps 751 mmHg 68%
    18:00 +28°C° 0,1 mm 3 mps 751 mmHg 72%
    19:00 +26°C° 0 mm 3 mps 751 mmHg 77%
    20:00 +24°C° 0 mm 2 mps 751 mmHg 83%
    21:00 +23°C° 0 mm 2 mps 751 mmHg 88%
    22:00 +21°C° 0 mm 2 mps 751 mmHg 90%
    23:00 +21°C° 0 mm 2 mps 751 mmHg 91%
    Mostrar más